Flag for Belarus Weather past 2 weeks in Barysaw, Belarus

Now
32 °F

Light rain. Low clouds.


Feels Like: 22 °F
Forecast: 33 / 40 °F
Wind: 13 mph from Southeast

Location: Minsk

Current Time: Jan 30, 2015 at 11:47:09 AM

Latest Report: Jan 30, 2015 at 11:00 AM


Visibility: N/A

Pressure: 29.33 "Hg

Humidity: 100%

Dew point: 32 °F

Location of BarysawLocation

Historic Weather in Barysaw — Graph

°F

Barysaw temperature yesterday

Maximum temperature yesterday: 34 °F (at 3:00 PM)
Minimum temperature yesterday: 30 °F (at 7:00 AM)
Average temperature yesterday: 31 °F

Past Weeks' High & Low Weather Summary

 TemperatureHumidityPressure
High36 °F (Jan 15, 2:30 PM)100% (Jan 15, 10:30 AM)30.24 "Hg (Jan 15, 10:30 AM)
Low19 °F (Jan 25, 9:30 PM)69% (Jan 20, 2:00 PM)29.36 "Hg (Jan 30, 5:00 AM)
Average30 °F97%30.01 "Hg
* Reported Jan 15 10:30 AM — Jan 30 10:30 AM, Barysaw, Weather by CustomWeather, © 2014

Note: Actual official high and low records may vary slightly from our data, if they occured in-between our weather recording intervals... More about our weather records

Advertising

Barysaw weather history for previous 24 hours

 ConditionsComfort  
Time TempWeatherWind HumidityBarometerVisibility
10:30 AM
Jan 30
30 °FLight snow. Low clouds.13 mph100%29.36 "HgN/A
10:00 AM30 °FLight snow. Low clouds.13 mph100%29.36 "Hg4 mi
9:30 AM30 °FLight snow. Ice fog.10 mph100%29.36 "Hg2 mi
9:00 AM30 °FSnow. Ice fog.10 mph100%29.36 "Hg1 mi
8:30 AM30 °FSnow flurries. Ice fog.13 mph100%29.36 "Hg1 mi
8:00 AM30 °FSnow showers. Ice fog.13 mph100%29.36 "Hg1 mi
7:30 AM30 °FSnow showers. Ice fog.13 mph100%29.36 "Hg1 mi
7:00 AM30 °FSnow flurries. Ice fog.13 mph100%29.36 "Hg1 mi
6:30 AM30 °FSnow showers. Ice fog.10 mph100%29.36 "Hg1 mi
6:00 AM30 °FSnow showers. Mostly cloudy.8 mph100%29.36 "Hg1 mi
5:30 AM30 °FSnow showers. Mostly cloudy.10 mph100%29.36 "Hg1 mi
5:00 AM30 °FSnow flurries. Mostly cloudy.10 mph100%29.36 "Hg2 mi
4:30 AM30 °FSnow flurries. Low clouds.10 mph100%29.39 "Hg1 mi
4:00 AM30 °FLight snow. Low clouds.10 mph100%29.39 "Hg1 mi
3:30 AM30 °FLight snow. Low clouds.10 mph100%29.39 "Hg2 mi
3:00 AM30 °FLight snow. Low clouds.10 mph100%29.39 "Hg1 mi
2:30 AM30 °FLight snow. Low clouds.13 mph100%29.39 "Hg2 mi
2:00 AM30 °FLight snow. Low clouds.10 mph100%29.39 "Hg2 mi
1:30 AM30 °FLight snow. Low clouds.13 mph100%29.42 "Hg2 mi
1:00 AM30 °FLight snow. Low clouds.13 mph100%29.42 "Hg4 mi
12:30 AM30 °FLight snow. Low clouds.13 mph100%29.42 "Hg6 mi
12:00 AM30 °FLow clouds.10 mph100%29.42 "HgN/A
11:30 PM
Jan 29
30 °FLight snow. Mostly cloudy.10 mph100%29.42 "Hg4 mi
11:00 PM30 °FSnow flurries. Mostly cloudy.10 mph100%29.42 "Hg3 mi
10:30 PM30 °FSnow flurries. Mostly cloudy.10 mph100%29.42 "Hg2 mi
10:00 PM30 °FSnow flurries. Mostly cloudy.8 mph100%29.42 "Hg1 mi
9:30 PM32 °FSnow flurries. Mostly cloudy.10 mph93%29.42 "Hg3 mi
9:00 PM32 °FSnow flurries. Mostly cloudy.10 mph93%29.42 "Hg3 mi
8:30 PM32 °FLight snow. Overcast.10 mph93%29.42 "Hg4 mi
8:00 PM32 °FLight snow. Overcast.10 mph93%29.42 "HgN/A
7:30 PM32 °FLight snow. Overcast.10 mph93%29.42 "HgN/A
7:00 PM32 °FLight snow. Clear.10 mph93%29.45 "HgN/A
6:30 PM32 °FLight snow. Overcast.10 mph93%29.45 "HgN/A
6:00 PM32 °FOvercast.10 mph93%29.45 "HgN/A
5:30 PM32 °FOvercast.10 mph93%29.45 "HgN/A
5:00 PM32 °FMostly cloudy.10 mph93%29.45 "HgN/A
4:30 PM32 °FMostly cloudy.10 mph93%29.45 "HgN/A
4:00 PM32 °FPartly sunny.13 mph93%29.45 "HgN/A
3:30 PM32 °FPartly sunny.10 mph87%29.45 "HgN/A
3:00 PM34 °FPartly sunny.13 mph81%29.45 "HgN/A
2:30 PM32 °FPartly sunny.10 mph87%29.47 "HgN/A
2:00 PM32 °FMostly cloudy.10 mph93%29.47 "HgN/A
1:30 PM32 °FMostly cloudy.13 mph93%29.47 "HgN/A
1:00 PM32 °FOvercast.10 mph93%29.50 "HgN/A
12:30 PM32 °FOvercast.10 mph93%29.50 "HgN/A
12:00 PM32 °FMostly cloudy.10 mph93%29.50 "HgN/A
11:30 AM30 °FMore clouds than sun.10 mph100%29.50 "HgN/A
11:00 AM30 °FMore clouds than sun.15 mph93%29.50 "HgN/A
Weather by CustomWeather, © 2014

See weather overviewHow to use our weather pages